Weather History for Topeka, KS

Change the Weather History Date:

Monday, August 26, 2013

  Actual Average Record
Temperature  
Mean Temperature 85 °F 76 °F  
Max Temperature 96 °F 87 °F 107 °F (1936)
Min Temperature 74 °F 64 °F 49 °F (1988)
Degree Days  
Heating Degree Days 0 0  
Month to date heating degree days 0 0  
Since 1 June heating degree days 5 8  
Since 1 July heating degree days 0 0  
Cooling Degree Days 20 11  
Month to date cooling degree days 291 335  
Year to date cooling degree days 1197 1177  
Since 1 June cooling degree days 1052 1051  
Growing Degree Days 34 (Base 50)    
Moisture  
Dew Point 69 °F    
Average Humidity 63    
Maximum Humidity 87    
Minimum Humidity 39    
Precipitation  
Precipitation 0.00 in 0.15 in 2.29 in (1942)
Month to date precipitation 5.19 3.57  
Year to date precipitation 24.45 25.90  
Snow  
Snow 0.00 in 0.00 in 0.00 in ()
Month to date snowfall 0.0 0.0  
Year to date snowfall 24.2 11.3  
Since 1 July snowfall 0.0 0.0  
Snow Depth 0.00 in    
Sea Level Pressure  
Sea Level Pressure 30.08 in    
Wind  
Wind Speed 8 mph (SSW)    
Max Wind Speed 17 mph    
Max Gust Speed 27 mph    
Visibility 10 miles    
Events      
T = Trace of Precipitation, MM = Missing Value Source: NWS Daily Summary

Daily Weather History Graph

Daily Weather History Graph

Search for Another Location

Airport:

Trip Planner

Search our weather history database for the weather conditions in past years. The results will help you decide how hot, cold, wet, or windy it might be!

Date:

Astronomy

Aug. 26, 2013 Rise Set
Actual Time 6:46 AM CDT 8:01 PM CDT
Civil Twilight 6:18 AM CDT 8:29 PM CDT
Nautical Twilight 5:45 AM CDT 9:02 PM CDT
Astronomical Twilight 5:10 AM CDT 9:36 PM CDT
Moon 11:16 PM CDT (8/26) 12:45 PM CDT (8/26)
Length of Visible Light 14h 10m
Length of Day
13h 15m
Waning Gibbous, 66% of the Moon is Illuminated
Aug 26
Waning Gibbous
Aug 28
Last Quarter
Sep 5
New
Sep 12
First Quarter
Sep 19
Full

Hourly Weather History & Observations

Time (CDT) Temp. Heat Index Dew Point Humidity Pressure Visibility Wind Dir Wind Speed Gust Speed Precip Events Conditions
12:53 AM 79.0 °F - 70.0 °F 74% 30.12 in 10.0 mi South 5.8 mph - N/A   Clear
1:53 AM 78.1 °F - 70.0 °F 76% 30.12 in 10.0 mi Calm Calm - N/A   Clear
2:53 AM 75.9 °F - 70.0 °F 82% 30.11 in 10.0 mi South 3.5 mph - N/A   Clear
3:53 AM 75.9 °F - 70.0 °F 82% 30.12 in 10.0 mi South 3.5 mph - N/A   Clear
4:53 AM 75.0 °F - 70.0 °F 84% 30.11 in 9.0 mi Calm Calm - N/A   Clear
5:53 AM 75.0 °F - 70.0 °F 84% 30.11 in 9.0 mi South 4.6 mph - N/A   Clear
6:53 AM 73.9 °F - 69.1 °F 85% 30.12 in 7.0 mi South 4.6 mph - N/A   Clear
7:53 AM 75.9 °F - 70.0 °F 82% 30.13 in 9.0 mi South 6.9 mph - N/A   Clear
8:53 AM 80.1 °F 83.2 °F 70.0 °F 71% 30.13 in 9.0 mi SSW 8.1 mph - N/A   Clear
9:53 AM 84.0 °F 87.8 °F 69.1 °F 61% 30.13 in 10.0 mi SW 6.9 mph 17.3 mph N/A   Clear
10:53 AM 87.1 °F 91.3 °F 69.1 °F 55% 30.13 in 10.0 mi SSW 10.4 mph - N/A   Clear
11:53 AM 90.0 °F 94.5 °F 69.1 °F 50% 30.12 in 10.0 mi SW 5.8 mph 17.3 mph N/A   Unknown
12:53 PM 91.9 °F 96.9 °F 69.1 °F 47% 30.09 in 10.0 mi SSW 10.4 mph - N/A   Clear
1:53 PM 93.0 °F 97.4 °F 68.0 °F 44% 30.08 in 10.0 mi SW 12.7 mph 21.9 mph N/A   Clear
2:53 PM 95.0 °F 99.5 °F 68.0 °F 41% 30.05 in 10.0 mi SSW 11.5 mph - N/A   Clear
3:53 PM 95.0 °F 99.0 °F 66.9 °F 40% 30.04 in 10.0 mi SW 10.4 mph 25.3 mph N/A   Partly Cloudy
4:53 PM 93.9 °F 97.5 °F 66.9 °F 41% 30.03 in 10.0 mi South 12.7 mph - N/A   Partly Cloudy
5:53 PM 93.0 °F 97.4 °F 68.0 °F 44% 30.03 in 10.0 mi SSW 11.5 mph - N/A   Clear
6:53 PM 91.0 °F 95.2 °F 68.0 °F 47% 30.02 in 10.0 mi South 10.4 mph - N/A   Clear
7:53 PM 88.0 °F 92.1 °F 69.1 °F 53% 30.03 in 10.0 mi South 8.1 mph - N/A   Clear
8:53 PM 84.9 °F 88.8 °F 69.1 °F 59% 30.03 in 10.0 mi South 8.1 mph - N/A   Clear
9:53 PM 84.0 °F 87.8 °F 69.1 °F 61% 30.03 in 10.0 mi South 10.4 mph - N/A   Clear
10:53 PM 82.9 °F 86.5 °F 69.1 °F 63% 30.02 in 10.0 mi South 10.4 mph - N/A   Clear
11:53 PM 82.0 °F 85.5 °F 69.1 °F 65% 30.02 in 10.0 mi South 9.2 mph - N/A   Clear